Погода в Козловке

Россия / Республика Мордовия     54°42′14″N   45°54′44″E
темп.,
°C
ветер,
м/с
пор.,
м/с
влажн.,
%
обл.,
%
осадки,
мм/ч
давл.,
гПа
погр.,
м
15 мая, сб
сб1500:00+18юв3481100 0.0 101656
03:00+17ююв387678 0.0 1015144
06:00+19ю6156430 0.0 1015332
09:00+23ю7155254 0.0 1016680
12:00+26ююз7144498 0.0 10161259
15:00+26ю7134623 0.0 10151386
18:00+23ю511584 0.0 1015325
21:00+19ю413637 0.0 1015234
16 мая, вс
вс1600:00+18ю4146160 0.0 1015243
03:00+15ю226732 0.0 101518
06:00+17ююз247097 0.0 1016135
09:00+22ююз346032 0.0 1016441
12:00+25ююз465263 0.0 10161086
15:00+26ююз5115197 0.0 10151756
18:00+23ююз385986 0.0 1015242
21:00+18ююз22705 0.0 101611
17 мая, пн
пн1700:00+16ююз117493 0.0 101711
03:00+15ю227529 0.0 101711
06:00+18вюв007055 0.0 101833
09:00+23юв33549 0.0 1018430
12:00+27ю454238 0.0 1018990
15:00+28ююз3737100 0.0 10171697
18:00+24ю3655100 0.0 1016134
21:00+20ююв225467 0.0 101711
18 мая, вт
вт1800:00+18юв225596 0.0 101715
03:00+17юв2255100 0.0 101618
06:00+19юв2660100 0.0 1016122
09:00+24ююв5946100 0.0 1016395
12:00+27юв573749 0.0 1015895
15:00+28юв46365 0.0 10151434
18:00+24юв51057100 0.0 1014240
21:00+20юв4759100 0.0 101491
19 мая, ср
ср1900:00+19юв4105517 0.0 1014141
03:00+18вюв410525 0.0 1013129
06:00+19юв5155781 0.0 1013297
09:00+24юв6144928 0.0 1012738
12:00+28ююв714415 0.0 10112498
15:00+28ю5114273 0.0 10102720
18:00+24ююз3759100 0.0 1010238
21:00+18юз2278100 0.1 101030